Location: Unspecified
(45.1420°N, 0.0000°E)
Time: 12:53:44
(UTC+00:00)

ISS - Visible Passes

Search period start: 20 May 2019 00:00
Search period end: 30 May 2019 00:00
Orbit: 407 x 410 km, 51.6° (Epoch: 20 May)

Date Brightness Start Highest point End Pass type
(mag) Time Alt. Az. Time Alt. Az. Time Alt. Az.
20 May -2.2 00:51:03 10° NW 00:54:08 35° NNE 00:57:13 10° E visible
20 May -3.8 02:27:36 10° WNW 02:30:50 54° SW 02:34:04 10° SE visible
20 May -3.8 20:45:41 10° WSW 20:48:59 83° NNW 20:52:18 10° ENE visible
20 May -1.7 22:22:58 10° WNW 22:25:53 28° N 22:28:49 10° NE visible
21 May -1.8 00:00:09 10° NW 00:03:06 29° N 00:04:30 21° NE visible
21 May -1.2 01:36:39 10° WNW 01:37:06 13° WNW 01:37:06 13° WNW visible
21 May -2.0 21:31:46 10° W 21:34:50 34° NNW 21:37:54 10° NE visible
21 May -1.6 23:09:09 10° NW 23:12:01 26° N 23:14:14 14° ENE visible
22 May -1.5 00:45:46 10° NW 00:46:55 20° NW 00:46:55 20° NW visible
22 May -2.6 20:40:36 10° W 20:43:48 44° NNW 20:47:00 10° NE visible
22 May -1.5 22:18:04 10° WNW 22:20:54 25° N 22:23:43 10° ENE visible
22 May -2.1 23:54:53 10° NW 23:57:15 34° NNW 23:57:15 34° NNW visible
23 May -1.6 21:26:54 10° WNW 21:29:47 27° N 21:32:40 10° NE visible
23 May -2.0 23:03:57 10° NW 23:06:58 31° NNE 23:07:45 28° NE visible
24 May -1.8 20:35:42 10° WNW 20:38:40 30° NNW 20:41:39 10° NE visible
24 May -1.7 22:12:58 10° NW 22:15:52 27° N 22:18:18 13° ENE visible
24 May -1.8 23:49:31 10° WNW 23:51:01 24° NW 23:51:01 24° NW visible
25 May -1.6 21:21:53 10° WNW 21:24:44 25° N 21:27:33 10° ENE visible
25 May -2.8 22:58:35 10° NW 23:01:37 47° N 23:01:37 47° N visible
26 May -1.6 20:30:44 10° WNW 20:33:33 26° N 20:36:24 10° NE visible
26 May -2.3 22:07:38 10° NW 22:10:44 35° NNE 22:12:14 23° ENE visible
26 May -1.3 23:44:11 10° WNW 23:44:57 16° WNW 23:44:57 16° WNW visible
27 May -1.9 21:16:39 10° NW 21:19:36 29° N 21:22:33 10° ENE visible
27 May -2.9 22:53:09 10° WNW 22:55:36 46° WNW 22:55:36 46° WNW visible
28 May -1.7 20:25:35 10° NW 20:28:26 26° N 20:31:17 10° ENE visible
28 May -3.3 22:02:11 10° NW 22:05:27 58° NNE 22:06:15 42° ENE visible
29 May -2.7 21:11:12 10° NW 21:14:22 40° NNE 21:16:56 14° E visible
29 May -2.2 22:47:49 10° WNW 22:49:39 27° W 22:49:39 27° W visible
